Torna al catalogo

FENGYUN 1C DEB

AttivoSSO
NORAD 30272·DEBRIS·🇨🇳 China

Lanciato May 10, 1999 da Taiyuan Satellite Launch Center

Loading…

Prossimi Passaggi (prossime 24 ore)

TLE

AggiornatoSource: Space-Track

Epoca: Sep 14, 2026, 03:48 UTC

1 30272U 99025YH  26257.15856422  .00001370  00000-0  71093-3 0  9998
2 30272  98.8841 329.0000 0049492  43.2964 317.2083 14.15813672  7519

Traccia FENGYUN 1C DEB in tempo reale con AllMySat

Download on the App Store